Keystone Heights, FL

1:36 AM EDT on August 29, 2016 (GMT -0400)
Keystone Airpark, Keystone He

Weather History for K42J - March, 2014

Change the Weather History Date:

Monday, March 3, 2014

  Actual Average (KGNV) Record (KGNV)
Temperature  
Mean Temperature 64 °F 60 °F  
Max Temperature 78 °F 72 °F 89 °F (1951)
Min Temperature 51 °F 48 °F 22 °F (1980)
Degree Days  
Heating Degree Days 0 6  
Month to date heating degree days 18  
Since 1 July heating degree days 1052  
Cooling Degree Days 0 1  
Month to date cooling degree days 3  
Year to date cooling degree days 35  
Growing Degree Days 14 (Base 50)    
Moisture  
Dew Point 58 °F    
Average Humidity 78    
Maximum Humidity 100    
Minimum Humidity 47    
Precipitation  
Precipitation 0.00 in 0.15 in 2.88 in (1978)
Month to date precipitation 0.44  
Year to date precipitation 6.95  
Snow  
Snow 0.00 in 0.00 in 0.00 in ()
Month to date snowfall 0.0  
Since 1 July snowfall 0.0  
Snow Depth -    
Sea Level Pressure  
Sea Level Pressure 30.01 in    
Wind  
Wind Speed 6 mph (SW)    
Max Wind Speed 20 mph    
Max Gust Speed 28 mph    
Visibility 9 miles    
Events      
T = Trace of Precipitation, MM = Missing Value Source: NWS Daily Summary

Daily Weather History Graph

Daily Weather History Graph

Search for Another Location

Airport or City:

Trip Planner

Search our weather history database for the weather conditions in past years. The results will help you decide how hot, cold, wet, or windy it might be!

Date:

Astronomy

Mar. 03, 2014 Rise Set
Actual Time 6:51 AM EST 6:28 PM EST
Civil Twilight 6:27 AM EST 6:52 PM EST
Nautical Twilight 6:00 AM EST 7:20 PM EST
Astronomical Twilight 5:32 AM EST 7:48 PM EST
Moon 8:13 AM EST (3/3) 9:14 PM EST (3/3)
Length of Visible Light 12h 24m
Length of Day
11h 36m
Waxing Crescent, 8% of the Moon is Illuminated
Mar 3
Waxing Crescent
Mar 8
First Quarter
Mar 16
Full
Mar 23
Last Quarter
Mar 30
New

Hourly Weather History & Observations

Time (EST) Temp. Dew Point Humidity Pressure Visibility Wind Dir Wind Speed Gust Speed Precip Events Conditions
12:55 AM 53.6 °F 53.6 °F 100% 30.07 in 10.0 mi Calm Calm - N/A   Clear
1:15 AM 53.6 °F 53.6 °F 100% 30.06 in 7.0 mi Calm Calm - N/A   Clear
1:35 AM 53.6 °F 53.6 °F 100% 30.05 in 10.0 mi Calm Calm - N/A   Clear
1:55 AM 53.6 °F 53.6 °F 100% 30.05 in 5.0 mi Calm Calm - N/A   Clear
2:15 AM 51.8 °F 51.8 °F 100% 30.04 in 10.0 mi Calm Calm - N/A   Clear
2:35 AM 51.8 °F 50.0 °F 94% 30.03 in 10.0 mi Calm Calm - N/A   Clear
2:55 AM 51.8 °F 51.8 °F 100% 30.02 in 10.0 mi Calm Calm - N/A   Clear
3:15 AM 51.8 °F 51.8 °F 100% 30.02 in 10.0 mi Calm Calm - N/A   Clear
3:35 AM 51.8 °F 51.8 °F 100% 30.02 in 9.0 mi Calm Calm - N/A   Clear
3:55 AM 53.6 °F 53.6 °F 100% 30.02 in 10.0 mi Calm Calm - N/A   Clear
4:15 AM 53.6 °F 53.6 °F 100% 30.02 in 10.0 mi Calm Calm - N/A   Clear
4:35 AM 53.6 °F 53.6 °F 100% 30.02 in 10.0 mi Calm Calm - N/A   Clear
4:55 AM 53.6 °F 51.8 °F 94% 30.02 in 10.0 mi Calm Calm - N/A   Clear
5:15 AM 51.8 °F 51.8 °F 100% 30.02 in 10.0 mi Calm Calm - N/A   Clear
5:35 AM 53.6 °F 53.6 °F 100% 30.01 in 10.0 mi South 5.8 mph - N/A   Clear
5:55 AM 55.4 °F 53.6 °F 94% 30.00 in 10.0 mi South 3.5 mph - N/A   Clear
6:15 AM 53.6 °F 53.6 °F 100% 30.01 in 5.0 mi South 3.5 mph - N/A   Clear
6:35 AM 53.6 °F 53.6 °F 100% 30.01 in 4.0 mi SSW 3.5 mph - N/A   Clear
6:55 AM 53.6 °F 53.6 °F 100% 30.02 in 9.0 mi Calm Calm - N/A   Clear
7:15 AM 53.6 °F 53.6 °F 100% 30.03 in 10.0 mi Calm Calm - N/A   Clear
7:35 AM 55.4 °F 55.4 °F 100% 30.04 in 10.0 mi SSW 3.5 mph - N/A   Clear
7:55 AM 57.2 °F 55.4 °F 94% 30.05 in 3.0 mi SW 5.8 mph - N/A   Clear
8:15 AM 59.0 °F 57.2 °F 94% 30.05 in 3.0 mi SW 5.8 mph - N/A   Clear
8:35 AM 62.6 °F 57.2 °F 82% 30.06 in 4.0 mi SW 8.1 mph - N/A   Clear
8:55 AM 64.4 °F 57.2 °F 77% 30.05 in 10.0 mi SSW 10.4 mph - N/A   Clear
9:15 AM 66.2 °F 55.4 °F 68% 30.04 in 10.0 mi SSW 9.2 mph - N/A   Clear
9:35 AM 68.0 °F 55.4 °F 64% 30.05 in 10.0 mi SW 11.5 mph - N/A   Clear
9:55 AM 69.8 °F 57.2 °F 64% 30.05 in 10.0 mi SW 12.7 mph 18.4 mph N/A   Clear
10:15 AM 71.6 °F 57.2 °F 60% 30.05 in 10.0 mi SW 12.7 mph 20.7 mph N/A   Clear
10:35 AM 73.4 °F 57.2 °F 57% 30.05 in 10.0 mi SW 16.1 mph 20.7 mph N/A   Clear
10:55 AM 73.4 °F 57.2 °F 57% 30.04 in 10.0 mi SW 12.7 mph 21.9 mph N/A   Clear
11:15 AM 75.2 °F 59.0 °F 57% 30.04 in 10.0 mi SW 17.3 mph 20.7 mph N/A   Clear
11:35 AM 75.2 °F 59.0 °F 57% 30.03 in 10.0 mi SW 17.3 mph 24.2 mph N/A   Clear
11:55 AM 75.2 °F 59.0 °F 57% 30.02 in 10.0 mi SW 17.3 mph 24.2 mph N/A   Clear
12:15 PM 77.0 °F 57.2 °F 50% 30.01 in 10.0 mi WSW 13.8 mph 20.7 mph N/A   Clear
12:35 PM 78.8 °F 59.0 °F 51% 30.01 in 10.0 mi SW 13.8 mph 24.2 mph N/A   Scattered Clouds
12:55 PM 78.8 °F 57.2 °F 47% 30.00 in 10.0 mi WSW 19.6 mph 25.3 mph N/A   Mostly Cloudy
1:15 PM 78.8 °F 57.2 °F 47% 29.99 in 10.0 mi WSW 15.0 mph 20.7 mph N/A   Mostly Cloudy
1:35 PM 78.8 °F 57.2 °F 47% 29.98 in 10.0 mi SW 17.3 mph 25.3 mph N/A   Mostly Cloudy
1:55 PM 78.8 °F 57.2 °F 47% 29.98 in 10.0 mi West 15.0 mph 23.0 mph N/A   Scattered Clouds
2:15 PM 78.8 °F 57.2 °F 47% 29.97 in 10.0 mi WSW 19.6 mph 24.2 mph N/A   Scattered Clouds
2:35 PM 78.8 °F 57.2 °F 47% 29.97 in 10.0 mi WSW 19.6 mph 27.6 mph N/A   Partly Cloudy
2:55 PM 78.8 °F 57.2 °F 47% 29.96 in 10.0 mi WSW 15.0 mph 25.3 mph N/A   Scattered Clouds
3:15 PM 78.8 °F 57.2 °F 47% 29.96 in 10.0 mi West 15.0 mph 23.0 mph N/A   Scattered Clouds
3:35 PM 78.8 °F 57.2 °F 47% 29.95 in 10.0 mi WSW 13.8 mph - N/A   Scattered Clouds
3:55 PM 78.8 °F 57.2 °F 47% 29.95 in 10.0 mi WSW 19.6 mph 24.2 mph N/A   Scattered Clouds
4:15 PM 77.0 °F 57.2 °F 50% 29.96 in 10.0 mi WSW 17.3 mph 23.0 mph N/A   Scattered Clouds
4:35 PM 75.2 °F 59.0 °F 57% 29.96 in 10.0 mi WSW 17.3 mph 23.0 mph N/A   Mostly Cloudy
4:55 PM 75.2 °F 59.0 °F 57% 29.97 in 10.0 mi WSW 11.5 mph 23.0 mph N/A   Scattered Clouds
5:15 PM 75.2 °F 60.8 °F 61% 29.97 in 10.0 mi WSW 16.1 mph 21.9 mph N/A   Scattered Clouds
5:35 PM 73.4 °F 60.8 °F 65% 29.97 in 10.0 mi West 10.4 mph 18.4 mph N/A   Partly Cloudy
5:55 PM 73.4 °F 60.8 °F 65% 29.98 in 10.0 mi WSW 13.8 mph 18.4 mph N/A   Partly Cloudy
6:15 PM 71.6 °F 62.6 °F 73% 29.98 in 10.0 mi WSW 12.7 mph 17.3 mph N/A   Partly Cloudy
6:35 PM 71.6 °F 62.6 °F 73% 29.98 in 10.0 mi WSW 12.7 mph - N/A   Scattered Clouds
6:55 PM 71.6 °F 62.6 °F 73% 29.98 in 10.0 mi WSW 11.5 mph - N/A   Scattered Clouds
7:15 PM 69.8 °F 62.6 °F 78% 29.98 in 10.0 mi SSW 8.1 mph 17.3 mph N/A   Clear
7:35 PM 69.8 °F 64.4 °F 83% 29.98 in 10.0 mi SW 9.2 mph - N/A   Clear
7:55 PM 68.0 °F 64.4 °F 88% 29.99 in 10.0 mi SW 6.9 mph - N/A   Clear
8:15 PM 68.0 °F 64.4 °F 88% 29.99 in 10.0 mi SW 9.2 mph - N/A   Clear
8:35 PM 68.0 °F 64.4 °F 88% 30.00 in 10.0 mi SSW 9.2 mph - N/A   Mostly Cloudy
8:55 PM 66.2 °F 64.4 °F 94% 30.00 in 10.0 mi SW 8.1 mph - N/A   Mostly Cloudy
9:15 PM 66.2 °F 64.4 °F 94% 30.01 in 10.0 mi SW 5.8 mph - N/A   Mostly Cloudy
9:35 PM 66.2 °F 64.4 °F 94% 30.02 in 10.0 mi SW 5.8 mph - N/A   Overcast
9:55 PM 66.2 °F 64.4 °F 94% 30.02 in 10.0 mi SW 5.8 mph - N/A   Overcast
10:15 PM 66.2 °F 64.4 °F 94% 30.02 in 10.0 mi SSW 6.9 mph - N/A   Overcast
10:35 PM 66.2 °F 64.4 °F 94% 30.02 in 10.0 mi SW 5.8 mph - N/A   Mostly Cloudy
10:55 PM 66.2 °F 64.4 °F 94% 30.02 in 10.0 mi SW 6.9 mph - N/A   Overcast
11:15 PM 66.2 °F 64.4 °F 94% 30.02 in 10.0 mi SW 5.8 mph - N/A   Overcast
11:35 PM 66.2 °F 64.4 °F 94% 30.02 in 10.0 mi SW 6.9 mph - N/A   Overcast
11:55 PM 66.2 °F 64.4 °F 94% 30.02 in 10.0 mi SW 5.8 mph - N/A   Overcast